Date String (YYYY-MM-DD hh:mm:ss) UTC,Instrument flags,absolute air pressure of the measurement (hPa),sample flow rate (lpm),inlet stack bypass flow (lpm),air temperature of the measurement (°C),ambient temperature measured by the external sensor (°C),aerosol sample conditioner tube jacket temperature (°C),OPC LED temperature (°C),internal box temperature (°C),relative humidity of the measurement (%),span deviation,mass concentration of particles derived from Lorenz-Mie calculation of OPC scattering (μg/m³),mass concentration of particles derived from Lorenz-Mie calculation of OPC scattering (μg/m³),mass concentration of particles derived from Lorenz-Mie calculation of OPC scattering (μg/m³)
DateTimeUTC,F1_M11,P_M11,Q1_M11,Q2_M11,T1_M11,T2_M11,T3_M11,T4_M11,T5_M11,U1_M11,ZSPAN_M11,X2_M11,X0_M11,X1_M11
2024-02-28 12:00:00,SystemResetWarning,0826.4,5.01,000.00,018.9,018.8,000.0,027.2,020.7,06.8,0000.0,0001.49,0004.14,0000.86
2024-02-28 12:01:00,SystemResetWarning,0826.2,5.01,000.00,018.9,018.6,000.0,027.2,020.5,07.3,0000.0,0001.52,0004.70,0000.89
2024-02-28 12:02:00,SystemResetWarning,0826.2,5.00,000.00,018.8,018.4,000.0,027.2,020.5,07.2,0000.0,0001.56,0004.79,0000.90
2024-02-28 12:03:00,SystemResetWarning,0826.3,4.99,000.00,018.8,018.3,000.0,027.1,020.3,07.3,0000.0,0001.56,0004.78,0000.91
2024-02-28 12:04:00,SystemResetWarning,0826.4,5.00,000.00,018.7,018.1,000.0,027.1,020.3,07.2,0000.0,0001.58,0004.55,0000.93
2024-02-28 12:05:00,SystemResetWarning,0826.4,5.00,000.00,018.7,018.0,000.0,027.1,020.2,07.6,0000.0,0001.58,0005.45,0000.94
2024-02-28 12:06:00,SystemResetWarning,0826.4,5.00,000.00,018.6,017.9,000.0,027.1,020.2,07.9,0000.0,0001.55,0005.91,0000.94
2024-02-28 12:07:00,SystemResetWarning,0826.3,5.01,000.00,018.6,018.1,000.0,027.2,020.3,08.1,0000.0,0001.58,0005.78,0000.96
2024-02-28 12:08:00,SystemResetWarning,0826.4,5.01,000.00,018.8,018.8,000.0,027.3,020.8,08.2,0000.0,0001.59,0005.86,0000.97
2024-02-28 12:09:00,SystemResetWarning,0826.4,4.99,000.00,019.0,019.3,000.0,027.3,021.1,08.2,0000.0,0001.56,0005.55,0000.96
2024-02-28 12:10:00,SystemResetWarning,0826.4,4.99,000.00,019.0,019.2,000.0,027.3,021.0,08.3,0000.0,0001.58,0005.74,0000.93
2024-02-28 12:11:00,SystemResetWarning,0826.4,5.00,000.00,019.0,019.0,000.0,027.2,020.8,08.4,0000.0,0001.57,0005.56,0000.90
2024-02-28 12:12:00,SystemResetWarning,0826.4,5.01,000.00,019.0,018.8,000.0,027.2,020.7,08.4,0000.0,0001.56,0004.99,0000.91
2024-02-28 12:13:00,SystemResetWarning,0826.4,5.00,000.00,018.9,018.6,000.0,027.2,020.6,07.8,0000.0,0001.60,0005.01,0000.95
2024-02-28 12:14:00,SystemResetWarning,0826.4,4.99,000.00,018.9,018.4,000.0,027.2,020.5,07.9,0000.0,0001.68,0005.10,0001.00
2024-02-28 12:15:00,SystemResetWarning,0826.4,4.99,000.00,018.8,018.3,000.0,027.2,020.4,08.4,0000.0,0001.76,0005.04,0001.04
2024-02-28 12:16:00,SystemResetWarning,0826.5,5.00,000.00,018.8,018.1,000.0,027.2,020.4,08.6,0000.0,0001.82,0004.57,0001.07
2024-02-28 12:17:00,SystemResetWarning,0826.6,5.00,000.00,018.7,018.0,000.0,027.2,020.3,08.6,0000.0,0001.90,0003.62,0001.13
2024-02-28 12:18:00,SystemResetWarning,0826.6,5.00,000.00,018.7,018.0,000.0,027.1,020.3,08.7,0000.0,0001.92,0004.24,0001.19
2024-02-28 12:19:00,SystemResetWarning,0826.6,5.00,000.00,018.7,018.0,000.0,027.2,020.3,08.7,0000.0,0001.97,0005.46,0001.24
2024-02-28 12:20:00,SystemResetWarning,0826.6,5.01,000.00,018.8,018.5,000.0,027.3,020.7,08.5,0000.0,0002.04,0005.71,0001.29
2024-02-28 12:21:00,SystemResetWarning,0826.7,5.00,000.00,019.0,019.2,000.0,027.4,021.1,08.4,0000.0,0002.00,0005.54,0001.33
2024-02-28 12:22:00,SystemResetWarning,0826.6,4.98,000.00,019.1,019.2,000.0,027.3,021.1,08.5,0000.0,0001.98,0005.48,0001.36
2024-02-28 12:23:00,SystemResetWarning,0826.6,5.01,000.00,019.0,019.0,000.0,027.3,021.0,08.5,0000.0,0002.06,0005.89,0001.40
2024-02-28 12:24:00,SystemResetWarning,0826.6,5.01,000.00,019.0,018.8,000.0,027.3,020.8,08.6,0000.0,0002.10,0006.27,0001.43
2024-02-28 12:25:00,SystemResetWarning,0826.6,4.99,000.00,019.0,018.7,000.0,027.3,020.7,08.6,0000.0,0002.15,0007.31,0001.45
2024-02-28 12:26:00,SystemResetWarning,0826.6,4.99,000.00,019.0,018.5,000.0,027.3,020.7,08.7,0000.0,0002.15,0007.36,0001.45
2024-02-28 12:27:00,SystemResetWarning,0826.6,5.00,000.00,018.9,018.4,000.0,027.3,020.6,08.6,0000.0,0002.12,0007.25,0001.47
2024-02-28 12:28:00,SystemResetWarning,0826.6,5.01,000.00,018.9,018.3,000.0,027.2,020.5,08.2,0000.0,0002.13,0007.30,0001.50
2024-02-28 12:29:00,SystemResetWarning,0826.5,5.00,000.00,018.8,018.2,000.0,027.2,020.4,08.4,0000.0,0002.15,0007.23,0001.51
2024-02-28 12:30:00,SystemResetWarning,0826.7,4.99,000.00,018.8,018.1,000.0,027.2,020.3,08.2,0000.0,0002.11,0006.60,0001.52
2024-02-28 12:31:00,SystemResetWarning,0826.7,4.99,000.00,018.8,018.1,000.0,027.3,020.4,08.5,0000.0,0002.08,0006.41,0001.52
2024-02-28 12:32:00,SystemResetWarning,0826.9,5.00,000.00,018.9,018.8,000.0,027.4,020.9,08.4,0000.0,0002.14,0006.58,0001.53
2024-02-28 12:33:00,SystemResetWarning,0826.8,5.02,000.00,019.1,019.6,000.0,027.5,021.4,08.5,0000.0,0002.16,0006.64,0001.52
2024-02-28 12:34:00,SystemResetWarning,0826.8,4.99,000.00,019.3,019.7,000.0,027.5,021.4,08.5,0000.0,0002.14,0006.32,0001.53
2024-02-28 12:35:00,SystemResetWarning,0826.8,4.98,000.00,019.2,019.5,000.0,027.4,021.2,08.4,0000.0,0002.10,0005.94,0001.53
2024-02-28 12:36:00,SystemResetWarning,0826.8,5.01,000.00,019.2,019.2,000.0,027.4,021.1,08.4,0000.0,0002.07,0004.88,0001.53
2024-02-28 12:37:00,SystemResetWarning,0826.8,5.00,000.00,019.2,019.0,000.0,027.4,020.9,08.3,0000.0,0002.08,0004.85,0001.54
2024-02-28 12:38:00,SystemResetWarning,0826.9,5.00,000.00,019.1,018.7,000.0,027.4,020.8,08.4,0000.0,0002.11,0005.05,0001.54
2024-02-28 12:39:00,SystemResetWarning,0826.9,5.01,000.00,019.1,018.6,000.0,027.4,020.7,08.4,0000.0,0002.11,0005.39,0001.53
2024-02-28 12:40:00,SystemResetWarning,0826.9,5.00,000.00,019.0,018.4,000.0,027.4,020.6,08.5,0000.0,0002.09,0004.64,0001.52
2024-02-28 12:41:00,SystemResetWarning,0826.9,5.01,000.00,019.0,018.3,000.0,027.4,020.5,08.4,0000.0,0002.13,0004.34,0001.51
2024-02-28 12:42:00,SystemResetWarning,0826.9,5.00,000.00,018.9,018.2,000.0,027.3,020.5,08.5,0000.0,0002.18,0004.31,0001.50
2024-02-28 12:43:00,SystemResetWarning,0826.9,5.01,000.00,018.9,018.1,000.0,027.3,020.4,08.6,0000.0,0002.17,0004.27,0001.48
2024-02-28 12:44:00,SystemResetWarning,0827.0,4.99,000.00,018.8,018.3,000.0,027.4,020.5,08.5,0000.0,0002.21,0004.33,0001.50
2024-02-28 12:45:00,SystemResetWarning,0827.0,5.01,000.00,019.0,019.0,000.0,027.5,021.0,08.4,0000.0,0002.18,0004.26,0001.49
2024-02-28 12:46:00,SystemResetWarning,0827.0,4.99,000.00,019.2,019.4,000.0,027.5,021.2,08.3,0000.0,0002.17,0004.72,0001.49
2024-02-28 12:47:00,SystemResetWarning,0827.0,4.99,000.00,019.2,019.2,000.0,027.5,021.1,08.3,0000.0,0002.18,0004.76,0001.50
2024-02-28 12:48:00,SystemResetWarning,0827.0,5.01,000.00,019.1,019.0,000.0,027.5,021.0,08.3,0000.0,0002.21,0005.50,0001.51
2024-02-28 12:49:00,SystemResetWarning,0827.1,5.01,000.00,019.1,018.8,000.0,027.4,020.8,08.4,0000.0,0002.20,0006.79,0001.52
2024-02-28 12:50:00,SystemResetWarning,0827.0,4.99,000.00,019.1,018.6,000.0,027.4,020.7,08.4,0000.0,0002.17,0007.24,0001.51
2024-02-28 12:51:00,SystemResetWarning,0827.0,5.00,000.00,019.0,018.5,000.0,027.4,020.7,08.4,0000.0,0002.16,0007.17,0001.51
2024-02-28 12:52:00,SystemResetWarning,0826.9,4.99,000.00,019.0,018.4,000.0,027.4,020.6,08.4,0000.0,0002.15,0007.11,0001.52
2024-02-28 12:53:00,SystemResetWarning,0826.9,5.00,000.00,019.0,018.3,000.0,027.4,020.6,08.4,0000.0,0002.10,0006.94,0001.52
2024-02-28 12:54:00,SystemResetWarning,0826.9,5.01,000.00,018.9,018.2,000.0,027.4,020.5,08.5,0000.0,0002.08,0006.87,0001.53
2024-02-28 12:55:00,SystemResetWarning,0827.0,5.01,000.00,018.9,018.1,000.0,027.3,020.5,08.5,0000.0,0002.02,0006.65,0001.53
2024-02-28 12:56:00,SystemResetWarning,0827.0,5.00,000.00,018.8,018.0,000.0,027.3,020.5,08.5,0000.0,0001.99,0006.51,0001.53
2024-02-28 12:57:00,SystemResetWarning,0827.0,5.00,000.00,018.8,018.1,000.0,027.4,020.5,08.5,0000.0,0002.03,0006.35,0001.54
2024-02-28 12:58:00,SystemResetWarning,0827.0,5.00,000.00,018.9,018.7,000.0,027.5,020.9,08.5,0000.0,0001.99,0006.01,0001.54
2024-02-28 12:59:00,SystemResetWarning,0827.0,5.00,000.00,019.1,019.3,000.0,027.5,021.3,08.3,0000.0,0002.00,0006.04,0001.52
